Regional Weather Roundup
Issued by NWS

Home | Current Version | Previous Version | Graphics & Text | Print | Product List | Glossary Off
Versions: 1 2 3 4 5 6 7 8 9 10 11 12 13 14 15 16 17 18 19 20 21 22 23 24 25 26 27 28 29 30 31 32 33 34 35 36 37 38 39 40 41 42 43 44 45 46 47 48 49 50

620
ASUS43 KLSX 131307
RWRMO

WEATHER SUMMARY FOR MISSOURI
NATIONAL WEATHER SERVICE SPRINGFIELD MO
700 AM CST SAT FEB 13 2016

NOTE: "FAIR" INDICATES FEW OR NO CLOUDS BELOW 12,000 FEET WITH NO
       SIGNIFICANT WEATHER AND/OR OBSTRUCTIONS TO VISIBILITY.
       CURRENT SKY AND/OR WEATHER CONDITIONS ARE NOT AVAILABLE FOR
       CHILLICOTHE AND FARMINGTON.

MOZ001>031-035>038-043-044-053-054-131400-
...NORTHERN AND WESTERN MISSOURI...

CITY           SKY/WX    TMP DP  RH WIND       PRES   REMARKS
KANSAS CTY INT CLOUDY    16   4  59 E10       30.60S WCI   4
KANSAS C DTWN  CLOUDY    18   4  54 NE9       30.63S WCI   7
LEE`S SUMMIT   CLOUDY    16   3  56 NE10      30.60R WCI   4
ST JOSEPH      CLOUDY    15   1  53 E7        30.64S WCI   5
CHILLICOTHE      N/A     11   0  61 NE3       30.67R
KIRKSVILLE     CLOUDY     7  -2  66 N5        30.64R WCI  -2

$$
MOZ066>068-077>081-088>096-101>105-131400-
...SOUTHWEST MISSOURI...

CITY           SKY/WX    TMP DP  RH WIND       PRES   REMARKS
SPRINGFIELD    CLOUDY    22   1  40 E9        30.52R WCI  12
JOPLIN         CLOUDY    24   7  48 NE8       30.54S WCI  15

$$
MOZ032>034-039>042-045>050-055>058-069>072-131400-
...CENTRAL MISSOURI...

CITY           SKY/WX    TMP DP  RH WIND       PRES   REMARKS
COLUMBIA       CLOUDY    12   2  64 NE9       30.63R WCI   0
JEFFERSON CITY CLOUDY    14   2  58 NE3       30.66R
ROLLA          CLOUDY    14   3  61 N8        30.57R WCI   3
SEDALIA        CLOUDY    16   1  51 N9        30.64R WCI   4
WHITEMAN AFB   CLOUDY    15   3  58 NE10      30.61S WCI   3
WARRENSBURG    CLOUDY    18   5  57 NE9       30.63R WCI   6
OSAGE BEACH    CLOUDY    18   1  49 NE7       30.60S WCI   8

$$
MOZ051-052-059>065-131400-
...EAST CENTRAL MISSOURI...

CITY           SKY/WX    TMP DP  RH WIND       PRES   REMARKS
ST LOUIS INTL  PTCLDY    12   1  61 N8        30.65R WCI   0
SPIRIT OF STL  PTCLDY    11   2  67 N5        30.65R WCI   3
ST CHARLES     PTCLDY    10  -1  61 N6        30.67R WCI   0

$$
MOZ072>076-082>087-097>100-106>115-131400-
...SOUTH CENTRAL AND SOUTHEAST MISSOURI...

CITY           SKY/WX    TMP DP  RH WIND       PRES   REMARKS
CAPE GIRARDEAU CLOUDY    16   7  67 N14       30.62R WCI   2
FARMINGTON     CLOUDY    13   4  67 VRB7      30.60R WCI   3
POPLAR BLUFF   CLOUDY    21   5  50 N9        30.59F WCI  11
WEST PLAINS    CLOUDY    21  -2  36 NE9       30.54R WCI  11

$$



USA.gov is the U.S. government's official web portal to all federal, state and local government web resources and services.